Terug naar catalogus

NINGXIA-1 7

ActiefWetenschapLEO
NORAD 49019·PAYLOAD·🇨🇳 China

Gelanceerd Jul 9, 2021 vanaf Taiyuan Satellite Launch Center

Loading…

Volgende Passages (komende 24 uur)

TLE

VersSource: Space-Track

Epoch: Sep 14, 2026, 15:06 UTC

1 49019U 21064B   26257.62930777 -.00000032  00000-0  57665-4 0  9998
2 49019  45.0020 183.2634 0007929 305.8423  54.1676 14.08558751266855

Volg NINGXIA-1 7 in realtime met AllMySat

Download on the App Store